Time,TemperatureF,DewpointF,PressureIn,WindDirection,WindDirectionDegrees,WindSpeedMPH,WindSpeedGustMPH,Humidity,HourlyPrecipIn,Conditions,Clouds,dailyrainin,SolarRadiationWatts/m^2,SoftwareType,DateUTC
2013-01-30 00:00:00,39.1,37.8,29.91,East,90,4.0,4.0,95,0.05,-RA,,0.23,0.0,WeatherDisplay:10.37,2013-01-30 05:00:00,
2013-01-30 00:01:00,39.1,37.8,29.91,ESE,116,4.0,4.0,95,0.05,-RA,,0.00,0.0,WeatherDisplay:10.37,2013-01-30 05:01:00,
2013-01-30 00:04:00,39.1,37.8,29.91,ENE,76,7.0,7.0,95,0.06,-RA,,0.01,0.0,WeatherDisplay:10.37,2013-01-30 05:04:00,
2013-01-30 00:09:00,39.3,38.0,29.91,ESE,107,5.0,5.0,95,0.06,-RA,,0.01,0.0,WeatherDisplay:10.37,2013-01-30 05:09:00,
2013-01-30 00:14:00,39.3,38.0,29.91,ESE,102,4.0,4.0,95,0.05,OVC,,0.01,0.0,WeatherDisplay:10.37,2013-01-30 05:14:00,
2013-01-30 00:19:00,39.5,38.2,29.91,East,96,6.0,6.0,95,0.05,OVC,,0.01,0.0,WeatherDisplay:10.37,2013-01-30 05:19:00,
2013-01-30 00:24:00,39.5,38.2,29.91,ESE,103,4.0,4.0,95,0.04,OVC,,0.01,0.0,WeatherDisplay:10.37,2013-01-30 05:24:00,
2013-01-30 00:29:00,39.6,38.3,29.90,East,84,4.0,4.0,95,0.04,OVC,,0.01,0.0,WeatherDisplay:10.37,2013-01-30 05:29:00,
2013-01-30 00:34:00,39.6,38.3,29.90,East,89,5.0,5.0,95,0.03,OVC,,0.01,0.0,WeatherDisplay:10.37,2013-01-30 05:34:00,
2013-01-30 00:39:00,39.8,38.5,29.90,East,99,4.0,4.0,95,0.02,OVC,,0.01,0.0,WeatherDisplay:10.37,2013-01-30 05:39:00,
2013-01-30 00:44:00,40.1,38.8,29.88,East,86,4.0,4.0,95,0.02,OVC,,0.01,0.0,WeatherDisplay:10.37,2013-01-30 05:44:00,
2013-01-30 00:49:00,40.2,38.9,29.88,East,84,4.0,4.0,95,0.02,OVC,,0.01,0.0,WeatherDisplay:10.37,2013-01-30 05:49:00,
2013-01-30 00:54:00,40.2,38.9,29.88,East,83,3.5,3.5,95,0.01,OVC,,0.01,0.0,WeatherDisplay:10.37,2013-01-30 05:54:00,
2013-01-30 00:59:00,40.1,38.8,29.87,NE,48,2.3,2.3,95,0.01,OVC,,0.01,0.0,WeatherDisplay:10.37,2013-01-30 05:59:00,
2013-01-30 01:04:00,40.1,38.8,29.87,NE,48,2.3,2.3,95,0.00,OVC,,0.01,0.0,WeatherDisplay:10.37,2013-01-30 06:04:00,
2013-01-30 01:09:00,40.1,38.8,29.87,NE,54,3.5,3.5,95,0.00,OVC,,0.01,0.0,WeatherDisplay:10.37,2013-01-30 06:09:00,
2013-01-30 01:14:00,40.1,38.8,29.87,NE,38,5.0,5.0,95,0.00,OVC,,0.01,0.0,WeatherDisplay:10.37,2013-01-30 06:14:00,
2013-01-30 01:19:00,40.1,38.8,29.87,ENE,61,5.0,5.0,95,0.00,OVC,,0.01,0.0,WeatherDisplay:10.37,2013-01-30 06:19:00,
2013-01-30 01:24:00,40.1,38.8,29.87,East,87,4.6,4.6,95,0.00,OVC,,0.01,0.0,WeatherDisplay:10.37,2013-01-30 06:24:00,
2013-01-30 01:29:00,39.9,38.6,29.86,ESE,104,1.0,1.0,95,0.00,OVC,,0.01,0.0,WeatherDisplay:10.37,2013-01-30 06:29:00,
2013-01-30 01:34:00,39.9,38.6,29.86,East,80,5.0,5.0,95,0.00,OVC,,0.01,0.0,WeatherDisplay:10.37,2013-01-30 06:34:00,
2013-01-30 01:39:00,39.9,38.6,29.86,ENE,72,8.1,8.1,95,0.00,OVC,,0.01,0.0,WeatherDisplay:10.37,2013-01-30 06:39:00,
2013-01-30 01:44:00,39.8,38.5,29.85,ENE,61,3.5,3.5,95,0.00,OVC,,0.01,0.0,WeatherDisplay:10.37,2013-01-30 06:44:00,
2013-01-30 01:49:00,39.8,38.5,29.85,ENE,64,5.0,5.0,95,0.00,OVC,,0.01,0.0,WeatherDisplay:10.37,2013-01-30 06:49:00,
2013-01-30 01:54:00,39.6,38.3,29.85,East,87,3.5,3.5,95,0.00,OVC,,0.01,0.0,WeatherDisplay:10.37,2013-01-30 06:54:00,
2013-01-30 01:59:00,39.6,38.3,29.84,East,89,0.0,0.0,95,0.00,OVC,,0.01,0.0,WeatherDisplay:10.37,2013-01-30 06:59:00,
2013-01-30 02:04:00,39.8,38.5,29.84,NE,39,4.0,4.0,95,0.00,OVC,,0.01,0.0,WeatherDisplay:10.37,2013-01-30 07:04:00,
2013-01-30 02:09:00,39.9,38.6,29.84,NE,40,3.0,3.0,95,0.00,OVC,,0.01,0.0,WeatherDisplay:10.37,2013-01-30 07:09:00,
2013-01-30 02:14:00,39.9,38.6,29.83,ENE,68,3.5,3.5,95,0.00,OVC,,0.01,0.0,WeatherDisplay:10.37,2013-01-30 07:14:00,
2013-01-30 02:19:00,39.9,38.6,29.83,NE,52,3.5,3.5,95,0.00,OVC,,0.01,0.0,WeatherDisplay:10.37,2013-01-30 07:19:00,
2013-01-30 02:24:00,39.8,38.5,29.83,East,83,6.0,6.0,95,0.00,OVC,,0.01,0.0,WeatherDisplay:10.37,2013-01-30 07:24:00,
2013-01-30 02:29:00,39.6,38.3,29.82,East,90,2.3,2.3,95,0.00,OVC,,0.01,0.0,WeatherDisplay:10.37,2013-01-30 07:29:00,
2013-01-30 02:34:00,39.6,38.3,29.82,ENE,68,4.0,4.0,95,0.00,OVC,,0.01,0.0,WeatherDisplay:10.37,2013-01-30 07:34:00,
2013-01-30 02:39:00,39.5,38.2,29.82,ENE,61,0.0,0.0,95,0.00,OVC,,0.01,0.0,WeatherDisplay:10.37,2013-01-30 07:39:00,
2013-01-30 02:44:00,38.9,37.6,29.81,ENE,61,1.1,0.0,95,0.00,OVC,,0.01,0.0,WeatherDisplay:10.37,2013-01-30 07:44:00,
2013-01-30 02:49:00,38.8,37.5,29.81,ENE,61,2.0,2.0,95,0.00,OVC,,0.01,0.0,WeatherDisplay:10.37,2013-01-30 07:49:00,
2013-01-30 02:54:00,38.9,37.6,29.81,ENE,61,1.1,0.0,95,0.00,OVC,,0.01,0.0,WeatherDisplay:10.37,2013-01-30 07:54:00,
2013-01-30 02:59:00,39.1,37.8,29.80,ENE,61,1.1,1.1,95,0.00,OVC,,0.01,0.0,WeatherDisplay:10.37,2013-01-30 07:59:00,
2013-01-30 03:04:00,39.2,37.9,29.80,NE,42,1.1,0.0,95,0.00,OVC,,0.01,0.0,WeatherDisplay:10.37,2013-01-30 08:04:00,
2013-01-30 03:09:00,39.2,37.9,29.80,NNE,29,2.3,2.3,95,0.00,OVC,,0.01,0.0,WeatherDisplay:10.37,2013-01-30 08:09:00,
2013-01-30 03:14:00,39.2,37.9,29.80,ENE,68,1.1,0.0,95,0.00,BKN,,0.01,0.0,WeatherDisplay:10.37,2013-01-30 08:14:00,
2013-01-30 03:19:00,39.5,38.2,29.80,East,85,3.5,3.5,95,0.00,BKN,,0.01,0.0,WeatherDisplay:10.37,2013-01-30 08:19:00,
2013-01-30 03:24:00,38.8,37.5,29.80,ESE,104,1.1,0.0,95,0.00,BKN,,0.01,0.0,WeatherDisplay:10.37,2013-01-30 08:24:00,
2013-01-30 03:29:00,38.8,37.5,29.79,East,89,5.0,5.0,95,0.00,BKN,,0.01,0.0,WeatherDisplay:10.37,2013-01-30 08:29:00,
2013-01-30 03:34:00,39.6,38.3,29.79,ESE,106,3.5,3.5,95,0.00,BKN,,0.01,0.0,WeatherDisplay:10.37,2013-01-30 08:34:00,
2013-01-30 03:39:00,39.9,38.6,29.79,East,79,4.0,4.0,95,0.00,BKN,,0.01,0.0,WeatherDisplay:10.37,2013-01-30 08:39:00,
2013-01-30 03:44:00,40.1,38.8,29.78,East,86,6.0,6.0,95,0.00,BKN,,0.01,0.0,WeatherDisplay:10.37,2013-01-30 08:44:00,
2013-01-30 03:49:00,40.1,38.8,29.78,East,91,5.0,5.0,95,0.00,BKN,,0.01,0.0,WeatherDisplay:10.37,2013-01-30 08:49:00,
2013-01-30 03:54:00,40.1,38.8,29.78,East,95,5.8,5.8,95,0.00,BKN,,0.01,0.0,WeatherDisplay:10.37,2013-01-30 08:54:00,
2013-01-30 03:59:00,39.9,38.6,29.77,East,87,11.5,11.5,95,0.00,BKN,,0.01,0.0,WeatherDisplay:10.37,2013-01-30 08:59:00,
2013-01-30 04:04:00,40.1,38.8,29.77,East,97,6.0,6.0,95,0.00,BKN,,0.01,0.0,WeatherDisplay:10.37,2013-01-30 09:04:00,
2013-01-30 04:09:00,39.9,38.6,29.77,East,87,10.0,10.0,95,0.00,BKN,,0.01,0.0,WeatherDisplay:10.37,2013-01-30 09:09:00,
2013-01-30 04:14:00,39.5,38.2,29.77,ESE,119,11.5,11.5,95,0.00,SCT,,0.01,0.0,WeatherDisplay:10.37,2013-01-30 09:14:00,
2013-01-30 04:19:00,39.3,38.0,29.77,ESE,107,12.0,12.0,95,0.00,SCT,,0.01,0.0,WeatherDisplay:10.37,2013-01-30 09:19:00,
2013-01-30 04:24:00,38.9,37.6,29.77,ESE,123,9.2,9.2,95,0.00,SCT,,0.01,0.0,WeatherDisplay:10.37,2013-01-30 09:24:00,
2013-01-30 04:29:00,38.6,37.3,29.77,SE,133,9.0,9.0,95,0.00,SCT,,0.01,0.0,WeatherDisplay:10.37,2013-01-30 09:29:00,
2013-01-30 04:34:00,38.5,37.2,29.77,ESE,106,9.2,9.2,95,0.00,SCT,,0.01,0.0,WeatherDisplay:10.37,2013-01-30 09:34:00,
2013-01-30 04:39:00,38.6,37.3,29.77,East,87,10.0,10.0,95,0.00,SCT,,0.01,0.0,WeatherDisplay:10.37,2013-01-30 09:39:00,
2013-01-30 04:44:00,38.9,37.6,29.75,SE,132,12.0,12.0,95,0.00,SCT,,0.01,0.0,WeatherDisplay:10.37,2013-01-30 09:44:00,
2013-01-30 04:49:00,39.1,37.8,29.75,ESE,109,9.2,9.2,95,0.00,SCT,,0.01,0.0,WeatherDisplay:10.37,2013-01-30 09:49:00,
2013-01-30 04:54:00,39.2,37.9,29.75,SE,127,10.4,10.4,95,0.00,SCT,,0.01,0.0,WeatherDisplay:10.37,2013-01-30 09:54:00,
2013-01-30 04:59:00,39.3,38.0,29.74,SE,134,10.4,10.4,95,0.00,SCT,,0.01,0.0,WeatherDisplay:10.37,2013-01-30 09:59:00,
2013-01-30 05:04:00,39.3,38.0,29.74,SSE,153,13.0,13.0,95,0.00,SCT,,0.01,0.0,WeatherDisplay:10.37,2013-01-30 10:04:00,
2013-01-30 05:09:00,39.2,37.9,29.74,ESE,118,12.0,12.0,95,0.00,SCT,,0.01,0.0,WeatherDisplay:10.37,2013-01-30 10:09:00,
2013-01-30 05:14:00,39.3,38.0,29.73,East,86,11.0,11.0,95,0.00,CLR,,0.01,0.0,WeatherDisplay:10.37,2013-01-30 10:14:00,
2013-01-30 05:19:00,39.3,38.0,29.73,East,94,11.5,11.5,95,0.00,CLR,,0.01,0.0,WeatherDisplay:10.37,2013-01-30 10:19:00,
2013-01-30 05:24:00,39.3,38.0,29.73,ESE,116,13.8,13.8,95,0.00,CLR,,0.01,0.0,WeatherDisplay:10.37,2013-01-30 10:24:00,
2013-01-30 05:29:00,39.3,38.0,29.72,ESE,121,12.0,12.0,95,0.00,CLR,,0.01,0.0,WeatherDisplay:10.37,2013-01-30 10:29:00,
2013-01-30 05:34:00,39.2,37.9,29.72,ESE,110,12.0,12.0,95,0.00,CLR,,0.01,0.0,WeatherDisplay:10.37,2013-01-30 10:34:00,
2013-01-30 05:39:00,39.3,38.0,29.72,East,95,12.7,12.7,95,0.00,CLR,,0.01,0.0,WeatherDisplay:10.37,2013-01-30 10:39:00,
2013-01-30 05:44:00,39.3,38.0,29.71,SE,133,16.1,16.1,95,0.00,CLR,,0.01,0.0,WeatherDisplay:10.37,2013-01-30 10:44:00,
2013-01-30 05:49:00,39.5,38.2,29.71,SE,128,13.0,13.0,95,0.00,CLR,,0.01,0.0,WeatherDisplay:10.37,2013-01-30 10:49:00,
2013-01-30 05:54:00,39.3,38.0,29.71,East,93,13.0,13.0,95,0.00,CLR,,0.01,0.0,WeatherDisplay:10.37,2013-01-30 10:54:00,
2013-01-30 05:59:00,39.3,38.0,29.71,ESE,116,14.0,14.0,95,0.00,CLR,,0.01,0.0,WeatherDisplay:10.37,2013-01-30 10:59:00,
2013-01-30 06:04:00,39.1,37.8,29.71,East,90,18.4,18.4,95,0.00,CLR,,0.01,0.0,WeatherDisplay:10.37,2013-01-30 11:04:00,
2013-01-30 06:09:00,39.1,37.8,29.71,ESE,105,12.7,12.7,95,0.00,CLR,,0.01,0.0,WeatherDisplay:10.37,2013-01-30 11:09:00,
2013-01-30 06:14:00,39.2,37.9,29.69,ESE,115,14.0,14.0,95,0.00,CLR,,0.01,0.0,WeatherDisplay:10.37,2013-01-30 11:14:00,
2013-01-30 06:19:00,39.5,38.2,29.69,ESE,104,14.0,14.0,95,0.00,CLR,,0.01,0.0,WeatherDisplay:10.37,2013-01-30 11:19:00,
2013-01-30 06:24:00,39.3,38.0,29.69,ESE,120,11.0,11.0,95,0.00,CLR,,0.01,0.0,WeatherDisplay:10.37,2013-01-30 11:24:00,
2013-01-30 06:29:00,39.2,37.9,29.69,ESE,110,17.3,17.3,95,0.00,CLR,,0.01,0.0,WeatherDisplay:10.37,2013-01-30 11:29:00,
2013-01-30 06:34:00,39.2,37.9,29.69,ESE,104,15.0,15.0,95,0.00,CLR,,0.01,0.0,WeatherDisplay:10.37,2013-01-30 11:34:00,
2013-01-30 06:40:00,39.3,38.0,29.69,ESE,111,14.0,14.0,95,0.00,CLR,,0.01,0.0,WeatherDisplay:10.37,2013-01-30 11:40:00,
2013-01-30 06:44:00,39.3,38.0,29.68,ESE,113,11.5,11.5,95,0.00,CLR,,0.01,0.0,WeatherDisplay:10.37,2013-01-30 11:44:00,
2013-01-30 06:49:00,39.3,38.0,29.68,SE,127,11.5,11.5,95,0.00,CLR,,0.01,0.0,WeatherDisplay:10.37,2013-01-30 11:49:00,
2013-01-30 06:54:00,39.6,38.3,29.68,SE,124,10.4,10.4,95,0.00,CLR,,0.01,0.0,WeatherDisplay:10.37,2013-01-30 11:54:00,
2013-01-30 07:00:00,39.6,38.3,29.68,ESE,117,10.4,10.4,95,0.00,CLR,,0.01,0.0,WeatherDisplay:10.37,2013-01-30 12:00:00,
2013-01-30 07:05:00,39.6,38.3,29.68,ESE,108,10.4,10.4,95,0.00,CLR,,0.01,0.0,WeatherDisplay:10.37,2013-01-30 12:05:00,
2013-01-30 07:10:00,39.3,37.7,29.68,SSE,150,10.4,10.4,94,0.00,CLR,,0.01,0.0,WeatherDisplay:10.37,2013-01-30 12:10:00,
2013-01-30 07:15:00,39.3,38.0,29.68,SSE,147,10.4,10.4,95,0.00,CLR,,0.01,5.0,WeatherDisplay:10.37,2013-01-30 12:15:00,
2013-01-30 07:20:00,39.2,37.9,29.68,SE,142,10.4,10.4,95,0.00,CLR,,0.01,0.0,WeatherDisplay:10.37,2013-01-30 12:20:00,
2013-01-30 07:25:00,39.2,37.6,29.68,ESE,123,10.4,10.4,94,0.00,CLR,,0.01,0.0,WeatherDisplay:10.37,2013-01-30 12:25:00,
2013-01-30 07:30:00,39.2,37.9,29.66,ESE,113,11.5,11.5,95,0.00,CLR,,0.01,5.0,WeatherDisplay:10.37,2013-01-30 12:30:00,
2013-01-30 07:35:00,39.3,38.0,29.66,ESE,112,11.5,11.5,95,0.00,CLR,,0.01,7.0,WeatherDisplay:10.37,2013-01-30 12:35:00,
2013-01-30 07:40:00,39.5,38.2,29.66,ESE,107,12.0,12.0,95,0.00,CLR,,0.01,11.0,WeatherDisplay:10.37,2013-01-30 12:40:00,
2013-01-30 07:45:00,39.6,38.3,29.66,East,87,6.0,6.0,95,0.00,CLR,,0.01,18.0,WeatherDisplay:10.37,2013-01-30 12:45:00,
2013-01-30 07:50:00,39.6,38.3,29.66,ESE,120,7.0,7.0,95,0.00,CLR,,0.01,23.0,WeatherDisplay:10.37,2013-01-30 12:50:00,
2013-01-30 07:55:00,39.6,38.3,29.66,East,87,9.2,9.2,95,0.00,CLR,,0.01,23.0,WeatherDisplay:10.37,2013-01-30 12:55:00,
2013-01-30 08:00:00,39.5,38.2,29.65,East,92,3.5,3.5,95,0.00,CLR,,0.01,25.0,WeatherDisplay:10.37,2013-01-30 13:00:00,
2013-01-30 08:05:00,39.5,38.2,29.65,ESE,120,12.0,12.0,95,0.00,CLR,,0.01,44.0,WeatherDisplay:10.37,2013-01-30 13:05:00,
2013-01-30 08:10:00,39.6,38.3,29.64,ESE,120,8.1,8.1,95,0.00,CLR,,0.01,76.0,WeatherDisplay:10.37,2013-01-30 13:10:00,
2013-01-30 08:15:00,39.6,38.3,29.64,ESE,123,10.4,10.4,95,0.00,CLR,,0.01,67.0,WeatherDisplay:10.37,2013-01-30 13:15:00,
2013-01-30 08:20:00,39.6,38.3,29.64,ESE,106,10.0,10.0,95,0.00,CLR,,0.01,47.0,WeatherDisplay:10.37,2013-01-30 13:20:00,
2013-01-30 08:25:00,39.6,38.3,29.63,SE,136,7.0,7.0,95,0.00,CLR,,0.01,40.0,WeatherDisplay:10.37,2013-01-30 13:25:00,
2013-01-30 08:30:00,39.6,38.3,29.63,SE,127,10.4,10.4,95,0.00,CLR,,0.01,47.0,WeatherDisplay:10.37,2013-01-30 13:30:00,
2013-01-30 08:35:00,39.9,38.6,29.63,ESE,115,14.0,14.0,95,0.00,CLR,,0.01,54.0,WeatherDisplay:10.37,2013-01-30 13:35:00,
2013-01-30 08:40:00,40.5,39.2,29.63,ESE,122,12.0,12.0,95,0.00,CLR,,0.01,62.0,WeatherDisplay:10.37,2013-01-30 13:40:00,
2013-01-30 08:45:00,41.1,39.8,29.61,SE,124,12.0,12.0,95,0.00,CLR,,0.01,63.0,WeatherDisplay:10.37,2013-01-30 13:45:00,
2013-01-30 08:50:00,41.6,40.3,29.61,SE,137,11.5,11.5,95,0.00,CLR,,0.01,69.0,WeatherDisplay:10.37,2013-01-30 13:50:00,
2013-01-30 08:55:00,41.8,40.5,29.61,SE,129,13.0,13.0,95,0.00,CLR,,0.01,72.0,WeatherDisplay:10.37,2013-01-30 13:55:00,
2013-01-30 09:00:00,41.8,40.5,29.61,ESE,109,12.0,12.0,95,0.00,CLR,,0.01,77.0,WeatherDisplay:10.37,2013-01-30 14:00:00,
2013-01-30 09:05:00,42.3,41.0,29.61,SSE,154,12.0,12.0,95,0.00,CLR,,0.01,104.0,WeatherDisplay:10.37,2013-01-30 14:05:00,
2013-01-30 09:10:00,42.5,41.2,29.61,SSE,151,13.8,13.8,95,0.00,CLR,,0.01,109.0,WeatherDisplay:10.37,2013-01-30 14:10:00,
2013-01-30 09:15:00,42.9,41.6,29.60,ESE,118,14.0,14.0,95,0.00,CLR,,0.01,104.0,WeatherDisplay:10.37,2013-01-30 14:15:00,
2013-01-30 09:20:00,44.1,42.8,29.60,SE,142,14.0,14.0,95,0.00,CLR,,0.01,109.0,WeatherDisplay:10.37,2013-01-30 14:20:00,
2013-01-30 09:25:00,45.2,43.9,29.60,East,94,15.0,15.0,95,0.00,CLR,,0.01,100.0,WeatherDisplay:10.37,2013-01-30 14:25:00,
2013-01-30 09:30:00,46.2,44.8,29.59,ESE,118,6.9,6.9,95,0.00,CLR,,0.01,93.0,WeatherDisplay:10.37,2013-01-30 14:30:00,
2013-01-30 09:35:00,47.3,45.7,29.59,SE,133,7.0,7.0,94,0.00,CLR,,0.01,116.0,WeatherDisplay:10.37,2013-01-30 14:35:00,
2013-01-30 09:40:00,48.2,46.6,29.58,ESE,122,6.9,6.9,94,0.00,CLR,,0.01,120.0,WeatherDisplay:10.37,2013-01-30 14:40:00,
2013-01-30 09:45:00,48.6,46.7,29.58,SSE,161,12.7,12.7,93,0.00,CLR,,0.01,118.0,WeatherDisplay:10.37,2013-01-30 14:45:00,
2013-01-30 09:50:00,49.1,46.9,29.58,ESE,120,10.4,10.4,92,0.00,CLR,,0.01,107.0,WeatherDisplay:10.37,2013-01-30 14:50:00,
2013-01-30 09:55:00,49.4,47.2,29.58,SE,146,13.0,13.0,92,0.00,CLR,,0.01,109.0,WeatherDisplay:10.37,2013-01-30 14:55:00,
2013-01-30 10:00:00,49.5,47.0,29.58,East,94,9.0,9.0,91,0.00,CLR,,0.01,118.0,WeatherDisplay:10.37,2013-01-30 15:00:00,
2013-01-30 10:05:00,50.2,47.7,29.58,SE,125,7.0,7.0,91,0.00,CLR,,0.01,116.0,WeatherDisplay:10.37,2013-01-30 15:05:00,
2013-01-30 10:10:00,50.4,47.3,29.55,ESE,120,9.2,9.2,89,0.00,CLR,,0.01,102.0,WeatherDisplay:10.37,2013-01-30 15:10:00,
2013-01-30 10:15:00,50.1,46.7,29.55,ESE,111,11.5,11.5,88,0.00,CLR,,0.01,113.0,WeatherDisplay:10.37,2013-01-30 15:15:00,
2013-01-30 10:20:00,50.4,47.0,29.55,ESE,109,15.0,15.0,88,0.00,CLR,,0.01,116.0,WeatherDisplay:10.37,2013-01-30 15:20:00,
2013-01-30 10:25:00,50.5,47.1,29.54,ESE,110,12.0,12.0,88,0.00,CLR,,0.01,130.0,WeatherDisplay:10.37,2013-01-30 15:25:00,
2013-01-30 10:30:00,50.8,47.4,29.54,SE,137,11.5,11.5,88,0.00,CLR,,0.01,137.0,WeatherDisplay:10.37,2013-01-30 15:30:00,
2013-01-30 10:35:00,50.8,47.1,29.54,SSE,161,4.6,4.6,87,0.00,CLR,,0.01,118.0,WeatherDisplay:10.37,2013-01-30 15:35:00,
2013-01-30 10:40:00,50.8,47.1,29.54,SSE,156,1.1,1.1,87,0.00,CLR,,0.01,116.0,WeatherDisplay:10.37,2013-01-30 15:40:00,
2013-01-30 10:45:00,50.8,47.1,29.54,SE,126,9.0,9.0,87,0.00,CLR,,0.01,118.0,WeatherDisplay:10.37,2013-01-30 15:45:00,
2013-01-30 10:50:00,51.4,47.4,29.54,SE,133,9.2,9.2,86,0.00,CLR,,0.01,121.0,WeatherDisplay:10.37,2013-01-30 15:50:00,
2013-01-30 10:55:00,51.9,47.8,29.54,SE,135,10.4,10.4,86,0.00,CLR,,0.01,130.0,WeatherDisplay:10.37,2013-01-30 15:55:00,
2013-01-30 11:00:00,52.2,47.8,29.53,ESE,123,9.2,9.2,85,0.00,CLR,,0.01,120.0,WeatherDisplay:10.37,2013-01-30 16:00:00,
2013-01-30 11:05:00,52.5,47.8,29.53,SE,133,7.0,7.0,84,0.00,CLR,,0.01,97.0,WeatherDisplay:10.37,2013-01-30 16:05:00,
2013-01-30 11:10:00,52.3,47.9,29.53,East,87,10.4,10.4,85,0.00,CLR,,0.01,105.0,WeatherDisplay:10.37,2013-01-30 16:10:00,
2013-01-30 11:15:00,52.5,47.8,29.52,ESE,105,4.0,4.0,84,0.00,SCT,,0.01,95.0,WeatherDisplay:10.37,2013-01-30 16:15:00,
2013-01-30 11:20:00,52.8,48.4,29.52,East,88,4.0,4.0,85,0.00,SCT,,0.01,102.0,WeatherDisplay:10.37,2013-01-30 16:20:00,
2013-01-30 11:25:00,53.1,48.7,29.50,East,87,11.5,11.5,85,0.00,SCT,,0.01,120.0,WeatherDisplay:10.37,2013-01-30 16:25:00,
2013-01-30 11:30:00,52.9,47.9,29.50,East,97,5.8,5.8,83,0.00,SCT,,0.01,109.0,WeatherDisplay:10.37,2013-01-30 16:30:00,
2013-01-30 11:35:00,53.5,48.8,29.50,ESE,117,6.0,6.0,84,0.00,SCT,,0.01,130.0,WeatherDisplay:10.37,2013-01-30 16:35:00,
2013-01-30 11:40:00,53.6,48.6,29.48,SE,125,9.2,9.2,83,0.00,SCT,,0.01,127.0,WeatherDisplay:10.37,2013-01-30 16:40:00,
2013-01-30 11:45:00,53.5,48.8,29.48,SSE,151,8.1,8.1,84,0.00,SCT,,0.01,84.0,WeatherDisplay:10.37,2013-01-30 16:45:00,
2013-01-30 11:50:00,53.6,48.9,29.48,East,85,5.0,5.0,84,0.00,SCT,,0.01,83.0,WeatherDisplay:10.37,2013-01-30 16:50:00,
2013-01-30 11:55:00,53.5,48.5,29.47,ESE,109,6.0,6.0,83,0.00,SCT,,0.01,81.0,WeatherDisplay:10.37,2013-01-30 16:55:00,
2013-01-30 12:00:00,53.6,48.9,29.47,East,87,4.0,4.0,84,0.00,SCT,,0.01,90.0,WeatherDisplay:10.37,2013-01-30 17:00:00,
2013-01-30 12:05:00,53.8,49.1,29.47,ESE,110,5.8,5.8,84,0.00,SCT,,0.01,102.0,WeatherDisplay:10.37,2013-01-30 17:05:00,
2013-01-30 12:10:00,54.2,49.5,29.47,SE,143,15.0,15.0,84,0.00,SCT,,0.01,100.0,WeatherDisplay:10.37,2013-01-30 17:10:00,
2013-01-30 12:15:00,54.1,48.4,29.46,SSW,213,3.5,3.5,81,0.00,FEW,,0.01,90.0,WeatherDisplay:10.37,2013-01-30 17:15:00,
2013-01-30 12:20:00,53.5,47.5,29.46,SSE,158,1.0,1.0,80,0.00,FEW,,0.01,69.0,WeatherDisplay:10.37,2013-01-30 17:20:00,
2013-01-30 12:25:00,52.5,47.2,29.46,NW,317,3.0,3.0,82,0.00,FEW,,0.01,65.0,WeatherDisplay:10.37,2013-01-30 17:25:00,
2013-01-30 12:30:00,52.2,46.9,29.48,SE,135,10.4,10.4,82,0.00,FEW,,0.01,56.0,WeatherDisplay:10.37,2013-01-30 17:30:00,
2013-01-30 12:36:00,53.2,48.5,29.48,SE,142,11.5,11.5,84,0.00,BKN,,0.01,54.0,WeatherDisplay:10.37,2013-01-30 17:36:00,
2013-01-30 12:41:00,54.1,49.7,29.45,SE,126,6.9,6.9,85,0.00,BKN,,0.01,46.0,WeatherDisplay:10.37,2013-01-30 17:41:00,
2013-01-30 12:46:00,54.7,50.3,29.45,SE,132,11.5,11.5,85,0.00,BKN,,0.01,54.0,WeatherDisplay:10.37,2013-01-30 17:46:00,
2013-01-30 12:51:00,55.3,49.6,29.45,SE,142,14.0,14.0,81,0.00,BKN,,0.01,47.0,WeatherDisplay:10.37,2013-01-30 17:51:00,
2013-01-30 12:56:00,55.4,50.0,29.44,SSE,156,12.0,12.0,82,0.00,BKN,,0.01,39.0,WeatherDisplay:10.37,2013-01-30 17:56:00,
2013-01-30 13:01:00,55.6,50.2,29.44,SSE,161,6.0,6.0,82,0.00,BKN,,0.01,44.0,WeatherDisplay:10.37,2013-01-30 18:01:00,
2013-01-30 13:06:00,56.0,50.9,29.44,SSE,155,11.5,11.5,83,0.00,BKN,,0.01,44.0,WeatherDisplay:10.37,2013-01-30 18:06:00,
2013-01-30 13:11:00,56.3,50.5,29.44,SE,139,12.0,12.0,81,0.00,BKN,,0.01,60.0,WeatherDisplay:10.37,2013-01-30 18:11:00,
2013-01-30 13:16:00,56.5,50.7,29.44,SE,138,20.0,20.0,81,0.00,OVC,,0.01,79.0,WeatherDisplay:10.37,2013-01-30 18:16:00,
2013-01-30 13:21:00,56.5,49.7,29.44,SE,141,17.3,17.3,78,0.00,OVC,,0.01,70.0,WeatherDisplay:10.37,2013-01-30 18:21:00,
2013-01-30 13:26:00,56.5,50.4,29.43,SSE,148,13.8,13.8,80,0.00,OVC,,0.01,79.0,WeatherDisplay:10.37,2013-01-30 18:26:00,
2013-01-30 13:31:00,56.9,51.1,29.43,SE,142,15.0,15.0,81,0.00,OVC,,0.01,54.0,WeatherDisplay:10.37,2013-01-30 18:31:00,
2013-01-30 13:36:00,56.7,50.6,29.43,SSE,155,17.3,17.3,80,0.00,OVC,,0.01,60.0,WeatherDisplay:10.37,2013-01-30 18:36:00,
2013-01-30 13:41:00,56.9,50.8,29.42,SE,138,13.8,13.8,80,0.00,OVC,,0.01,39.0,WeatherDisplay:10.37,2013-01-30 18:41:00,
2013-01-30 13:46:00,57.2,51.1,29.42,SSE,150,21.9,21.9,80,0.00,OVC,,0.01,30.0,WeatherDisplay:10.37,2013-01-30 18:46:00,
2013-01-30 13:51:00,56.7,49.9,29.42,SSE,163,11.5,11.5,78,0.00,OVC,,0.01,25.0,WeatherDisplay:10.37,2013-01-30 18:51:00,
2013-01-30 13:56:00,56.5,50.7,29.43,SSE,156,15.0,15.0,81,0.00,OVC,,0.01,28.0,WeatherDisplay:10.37,2013-01-30 18:56:00,
2013-01-30 14:01:00,56.3,50.9,29.43,SE,140,13.0,13.0,82,0.00,OVC,,0.01,26.0,WeatherDisplay:10.37,2013-01-30 19:01:00,
2013-01-30 14:06:00,56.5,51.4,29.43,South,179,12.7,12.7,83,0.00,OVC,,0.01,33.0,WeatherDisplay:10.37,2013-01-30 19:06:00,
2013-01-30 14:11:00,56.0,51.2,29.43,SSE,153,13.0,13.0,84,0.00,OVC,,0.01,44.0,WeatherDisplay:10.37,2013-01-30 19:11:00,
2013-01-30 14:16:00,55.7,51.6,29.43,SE,140,11.5,11.5,86,0.00,OVC,,0.01,32.0,WeatherDisplay:10.37,2013-01-30 19:16:00,
2013-01-30 14:21:00,55.7,51.9,29.43,SSE,165,13.0,13.0,87,0.00,OVC,,0.01,21.0,WeatherDisplay:10.37,2013-01-30 19:21:00,
2013-01-30 14:26:00,55.3,51.5,29.42,SE,144,13.0,13.0,87,0.00,OVC,,0.01,32.0,WeatherDisplay:10.37,2013-01-30 19:26:00,
2013-01-30 14:31:00,55.0,51.2,29.42,SE,146,19.6,19.6,87,0.00,-RA,,0.01,37.0,WeatherDisplay:10.37,2013-01-30 19:31:00,
2013-01-30 14:36:00,55.1,51.3,29.42,SE,146,15.0,15.0,87,0.00,-RA,,0.01,56.0,WeatherDisplay:10.37,2013-01-30 19:36:00,
2013-01-30 14:41:00,55.1,51.6,29.41,SE,138,15.0,15.0,88,0.00,-RA,,0.01,35.0,WeatherDisplay:10.37,2013-01-30 19:41:00,
2013-01-30 14:46:00,55.6,51.8,29.41,SE,141,17.3,17.3,87,0.00,-RA,,0.01,30.0,WeatherDisplay:10.37,2013-01-30 19:46:00,
2013-01-30 14:51:00,56.0,52.5,29.41,SE,140,20.0,20.0,88,0.00,-RA,,0.01,33.0,WeatherDisplay:10.37,2013-01-30 19:51:00,
2013-01-30 14:56:00,56.5,52.7,29.38,SSE,154,19.6,19.6,87,0.00,-RA,,0.01,28.0,WeatherDisplay:10.37,2013-01-30 19:56:00,
2013-01-30 15:01:00,56.5,52.4,29.38,SE,139,19.6,19.6,86,0.00,-RA,,0.01,23.0,WeatherDisplay:10.37,2013-01-30 20:01:00,
2013-01-30 15:06:00,56.6,52.5,29.38,SE,134,16.1,16.1,86,0.00,-RA,,0.01,25.0,WeatherDisplay:10.37,2013-01-30 20:06:00,
2013-01-30 15:11:00,56.9,52.4,29.36,SE,134,17.0,17.0,85,0.00,OVC,,0.01,21.0,WeatherDisplay:10.37,2013-01-30 20:11:00,
2013-01-30 15:16:00,56.9,52.8,29.36,SE,136,20.0,20.0,86,0.00,OVC,,0.01,37.0,WeatherDisplay:10.37,2013-01-30 20:16:00,
2013-01-30 15:21:00,56.9,52.4,29.36,SSE,151,17.0,17.0,85,0.00,OVC,,0.01,23.0,WeatherDisplay:10.37,2013-01-30 20:21:00,
2013-01-30 15:26:00,57.3,52.8,29.38,SE,145,16.1,16.1,85,0.00,OVC,,0.01,14.0,WeatherDisplay:10.37,2013-01-30 20:26:00,
2013-01-30 15:31:00,57.6,53.1,29.38,SSW,198,15.0,15.0,85,0.00,OVC,,0.01,12.0,WeatherDisplay:10.37,2013-01-30 20:31:00,
2013-01-30 15:36:00,57.8,53.0,29.38,SE,135,12.7,12.7,84,0.00,OVC,,0.01,11.0,WeatherDisplay:10.37,2013-01-30 20:36:00,
2013-01-30 15:41:00,57.8,53.3,29.39,SSE,168,18.4,18.4,85,0.00,OVC,,0.01,9.0,WeatherDisplay:10.37,2013-01-30 20:41:00,
2013-01-30 15:46:00,57.6,53.1,29.39,SSE,148,13.0,13.0,85,0.00,OVC,,0.01,11.0,WeatherDisplay:10.37,2013-01-30 20:46:00,
2013-01-30 15:51:00,57.6,53.4,29.39,SSE,156,12.0,12.0,86,0.00,OVC,,0.01,12.0,WeatherDisplay:10.37,2013-01-30 20:51:00,
2013-01-30 15:56:00,57.6,53.4,29.40,SSE,156,6.9,6.9,86,0.00,OVC,,0.01,14.0,WeatherDisplay:10.37,2013-01-30 20:56:00,
2013-01-30 16:01:00,57.6,53.4,29.40,SW,220,2.3,2.3,86,0.00,OVC,,0.01,11.0,WeatherDisplay:10.37,2013-01-30 21:01:00,
2013-01-30 16:06:00,57.8,53.6,29.40,North,7,2.0,2.0,86,0.00,OVC,,0.01,11.0,WeatherDisplay:10.37,2013-01-30 21:06:00,
2013-01-30 16:11:00,57.8,53.6,29.40,North,8,3.5,3.5,86,0.00,OVC,,0.01,12.0,WeatherDisplay:10.37,2013-01-30 21:11:00,
2013-01-30 16:16:00,57.6,53.4,29.40,SSE,156,5.0,5.0,86,0.00,-RA,,0.01,9.0,WeatherDisplay:10.37,2013-01-30 21:16:00,
2013-01-30 16:21:00,57.6,53.1,29.40,East,87,1.0,1.0,85,0.00,-RA,,0.01,11.0,WeatherDisplay:10.37,2013-01-30 21:21:00,
2013-01-30 16:26:00,57.5,53.3,29.40,ENE,64,3.0,3.0,86,0.00,-RA,,0.01,9.0,WeatherDisplay:10.37,2013-01-30 21:26:00,
2013-01-30 16:31:00,56.9,52.8,29.40,NNE,25,6.0,6.0,86,0.00,-RA,,0.01,7.0,WeatherDisplay:10.37,2013-01-30 21:31:00,
2013-01-30 16:36:00,56.6,52.8,29.40,SE,137,4.0,4.0,87,0.00,-RA,,0.01,5.0,WeatherDisplay:10.37,2013-01-30 21:36:00,
2013-01-30 16:41:00,57.0,53.2,29.38,SSE,147,11.5,11.5,87,0.00,-RA,,0.01,0.0,WeatherDisplay:10.37,2013-01-30 21:41:00,
2013-01-30 16:46:00,57.3,53.1,29.38,SSW,213,3.5,3.5,86,0.00,-RA,,0.01,0.0,WeatherDisplay:10.37,2013-01-30 21:46:00,
2013-01-30 16:51:00,57.3,52.8,29.38,ENE,73,6.0,6.0,85,0.00,-RA,,0.01,0.0,WeatherDisplay:10.37,2013-01-30 21:51:00,
2013-01-30 16:56:00,57.3,52.8,29.38,SE,126,12.0,12.0,85,0.00,-RA,,0.01,0.0,WeatherDisplay:10.37,2013-01-30 21:56:00,
2013-01-30 17:01:00,57.6,53.1,29.38,SE,142,6.0,6.0,85,0.00,-RA,,0.01,0.0,WeatherDisplay:10.37,2013-01-30 22:01:00,
2013-01-30 17:06:00,57.8,53.3,29.38,SSW,202,6.9,6.9,85,0.00,-RA,,0.01,0.0,WeatherDisplay:10.37,2013-01-30 22:06:00,
2013-01-30 17:11:00,58.0,53.5,29.40,WSW,246,5.8,5.8,85,0.00,OVC,,0.01,0.0,WeatherDisplay:10.37,2013-01-30 22:11:00,
2013-01-30 17:16:00,57.8,53.0,29.40,North,350,4.6,4.6,84,0.01,RA,,0.02,0.0,WeatherDisplay:10.37,2013-01-30 22:16:00,
2013-01-30 17:21:00,57.3,52.5,29.40,West,273,4.6,0.0,84,0.01,RA,,0.02,0.0,WeatherDisplay:10.37,2013-01-30 22:21:00,
2013-01-30 17:26:00,57.0,52.2,29.39,WNW,298,1.1,0.0,84,0.01,OVC,,0.02,0.0,WeatherDisplay:10.37,2013-01-30 22:26:00,
2013-01-30 17:31:00,56.3,51.8,29.39,SE,130,11.5,11.5,85,0.01,OVC,,0.02,0.0,WeatherDisplay:10.37,2013-01-30 22:31:00,
2013-01-30 17:36:00,56.6,52.8,29.39,SSE,149,10.0,10.0,87,0.01,OVC,,0.02,0.0,WeatherDisplay:10.37,2013-01-30 22:36:00,
2013-01-30 17:41:00,56.6,53.1,29.39,SE,133,17.3,17.3,88,0.01,OVC,,0.02,0.0,WeatherDisplay:10.37,2013-01-30 22:41:00,
2013-01-30 17:46:00,56.5,52.7,29.39,SSE,161,14.0,14.0,87,0.01,OVC,,0.02,0.0,WeatherDisplay:10.37,2013-01-30 22:46:00,
2013-01-30 17:51:00,56.6,52.8,29.39,SSE,158,18.4,18.4,87,0.01,OVC,,0.02,0.0,WeatherDisplay:10.37,2013-01-30 22:51:00,
2013-01-30 17:56:00,56.9,53.1,29.40,SE,138,18.4,18.4,87,0.01,OVC,,0.03,0.0,WeatherDisplay:10.37,2013-01-30 22:56:00,
2013-01-30 18:01:00,56.7,52.6,29.40,SSE,150,17.3,17.3,86,0.02,RA,,0.03,0.0,WeatherDisplay:10.37,2013-01-30 23:01:00,
2013-01-30 18:06:00,57.0,53.5,29.40,SSE,147,20.0,20.0,88,0.02,OVC,,0.03,0.0,WeatherDisplay:10.37,2013-01-30 23:06:00,
2013-01-30 18:11:00,56.9,53.4,29.39,SE,146,18.4,18.4,88,0.02,OVC,,0.03,0.0,WeatherDisplay:10.37,2013-01-30 23:11:00,
2013-01-30 18:16:00,56.7,53.2,29.39,SSE,151,20.0,20.0,88,0.01,-RA,,0.03,0.0,WeatherDisplay:10.37,2013-01-30 23:16:00,
2013-01-30 18:21:00,56.9,53.4,29.39,SE,139,23.0,23.0,88,0.01,-RA,,0.03,0.0,WeatherDisplay:10.37,2013-01-30 23:21:00,
2013-01-30 18:26:00,57.0,53.5,29.40,South,182,19.6,19.6,88,0.01,-RA,,0.03,0.0,WeatherDisplay:10.37,2013-01-30 23:26:00,
2013-01-30 18:31:00,56.9,53.4,29.40,SE,145,18.4,18.4,88,0.02,-RA,,0.04,0.0,WeatherDisplay:10.37,2013-01-30 23:31:00,
2013-01-30 18:36:00,56.9,53.4,29.40,SSE,168,22.0,22.0,88,0.02,-RA,,0.04,0.0,WeatherDisplay:10.37,2013-01-30 23:36:00,
2013-01-30 18:41:00,56.7,52.9,29.41,SE,137,17.3,17.3,87,0.02,-RA,,0.04,0.0,WeatherDisplay:10.37,2013-01-30 23:41:00,
2013-01-30 18:46:00,56.7,53.5,29.41,SSE,156,19.6,19.6,89,0.02,-RA,,0.04,0.0,WeatherDisplay:10.37,2013-01-30 23:46:00,
2013-01-30 18:51:00,56.5,53.0,29.41,SSE,165,19.6,19.6,88,0.02,-RA,,0.04,0.0,WeatherDisplay:10.37,2013-01-30 23:51:00,
2013-01-30 18:56:00,56.3,53.1,29.39,SE,142,15.0,15.0,89,0.01,-RA,,0.04,0.0,WeatherDisplay:10.37,2013-01-30 23:56:00,
2013-01-30 19:01:00,56.3,53.1,29.39,SSE,158,17.0,17.0,89,0.01,-RA,,0.04,0.0,WeatherDisplay:10.37,2013-01-31 00:01:00,
2013-01-30 19:06:00,56.3,53.1,29.39,SSE,151,19.6,19.6,89,0.01,-RA,,0.04,0.0,WeatherDisplay:10.37,2013-01-31 00:06:00,
2013-01-30 19:11:00,56.6,53.1,29.38,SSE,148,19.0,19.0,88,0.01,-RA,,0.04,0.0,WeatherDisplay:10.37,2013-01-31 00:11:00,
2013-01-30 19:16:00,56.5,53.0,29.38,ESE,113,18.0,18.0,88,0.01,-RA,,0.04,0.0,WeatherDisplay:10.37,2013-01-31 00:16:00,
2013-01-30 19:21:00,56.5,53.0,29.38,SSE,165,16.0,16.0,88,0.01,-RA,,0.04,0.0,WeatherDisplay:10.37,2013-01-31 00:21:00,
2013-01-30 19:26:00,56.3,52.5,29.39,SSE,149,19.0,19.0,87,0.01,-RA,,0.04,0.0,WeatherDisplay:10.37,2013-01-31 00:26:00,
2013-01-30 19:31:00,56.6,52.8,29.39,SSE,166,13.8,13.8,87,0.00,-RA,,0.04,0.0,WeatherDisplay:10.37,2013-01-31 00:31:00,
2013-01-30 19:36:00,56.6,53.1,29.39,SSE,157,16.1,16.1,88,0.00,-RA,,0.04,0.0,WeatherDisplay:10.37,2013-01-31 00:36:00,
2013-01-30 19:41:00,56.6,53.1,29.39,SSE,152,16.1,16.1,88,0.01,-RA,,0.05,0.0,WeatherDisplay:10.37,2013-01-31 00:41:00,
2013-01-30 19:46:00,56.6,53.1,29.39,SSE,150,18.4,18.4,88,0.01,-RA,,0.05,0.0,WeatherDisplay:10.37,2013-01-31 00:46:00,
2013-01-30 19:51:00,56.5,53.3,29.39,SSE,159,16.1,16.1,89,0.02,-RA,,0.06,0.0,WeatherDisplay:10.37,2013-01-31 00:51:00,
2013-01-30 19:56:00,56.0,52.8,29.38,SSE,160,15.0,15.0,89,0.02,-RA,,0.06,0.0,WeatherDisplay:10.37,2013-01-31 00:56:00,
2013-01-30 20:01:00,56.0,53.1,29.38,SSE,159,12.0,12.0,90,0.03,-RA,,0.07,0.0,WeatherDisplay:10.37,2013-01-31 01:01:00,
2013-01-30 20:06:00,55.9,53.0,29.38,SE,140,17.0,17.0,90,0.03,-RA,,0.07,0.0,WeatherDisplay:10.37,2013-01-31 01:06:00,
2013-01-30 20:11:00,55.7,52.8,29.37,SE,135,14.0,14.0,90,0.04,-RA,,0.08,0.0,WeatherDisplay:10.37,2013-01-31 01:11:00,
2013-01-30 20:16:00,55.6,53.0,29.37,SE,141,11.5,11.5,91,0.05,-RA,,0.10,0.0,WeatherDisplay:10.37,2013-01-31 01:16:00,
2013-01-30 20:21:00,55.4,52.8,29.37,SE,131,12.0,12.0,91,0.05,-RA,,0.10,0.0,WeatherDisplay:10.37,2013-01-31 01:21:00,
2013-01-30 20:26:00,55.3,52.7,29.36,SE,137,12.7,12.7,91,0.06,-RA,,0.11,0.0,WeatherDisplay:10.37,2013-01-31 01:26:00,
2013-01-30 20:31:00,55.3,53.0,29.36,SE,134,15.0,15.0,92,0.07,-RA,,0.12,0.0,WeatherDisplay:10.37,2013-01-31 01:31:00,
2013-01-30 20:36:00,55.1,52.8,29.36,ESE,118,13.0,13.0,92,0.08,-RA,,0.13,0.0,WeatherDisplay:10.37,2013-01-31 01:36:00,
2013-01-30 20:41:00,55.1,52.8,29.35,SE,142,15.0,15.0,92,0.08,-RA,,0.14,0.0,WeatherDisplay:10.37,2013-01-31 01:41:00,
2013-01-30 20:46:00,55.1,52.8,29.35,SSE,153,16.1,16.1,92,0.10,-RA,,0.15,0.0,WeatherDisplay:10.37,2013-01-31 01:46:00,
2013-01-30 20:51:00,55.0,52.7,29.35,SSE,155,16.1,16.1,92,0.10,-RA,,0.16,0.0,WeatherDisplay:10.37,2013-01-31 01:51:00,
2013-01-30 20:56:00,55.0,52.7,29.35,ESE,121,17.3,17.3,92,0.11,-RA,,0.17,0.0,WeatherDisplay:10.37,2013-01-31 01:56:00,
2013-01-30 21:01:00,54.8,52.5,29.35,SSE,154,18.4,18.4,92,0.11,RA,,0.19,0.0,WeatherDisplay:10.37,2013-01-31 02:01:00,
2013-01-30 21:06:00,54.8,52.5,29.35,SE,133,17.3,17.3,92,0.12,RA,,0.19,0.0,WeatherDisplay:10.37,2013-01-31 02:06:00,
2013-01-30 21:11:00,54.7,52.4,29.33,ESE,114,14.0,14.0,92,0.12,RA,,0.20,0.0,WeatherDisplay:10.37,2013-01-31 02:11:00,
2013-01-30 21:16:00,54.7,52.1,29.33,East,98,14.0,14.0,91,0.12,RA,,0.21,0.0,WeatherDisplay:10.37,2013-01-31 02:16:00,
2013-01-30 21:21:00,54.7,52.1,29.33,SE,130,19.6,19.6,91,0.12,RA,,0.21,0.0,WeatherDisplay:10.37,2013-01-31 02:21:00,
2013-01-30 21:26:00,54.7,52.1,29.31,SE,125,14.0,14.0,91,0.12,RA,,0.22,0.0,WeatherDisplay:10.37,2013-01-31 02:26:00,
2013-01-30 21:31:00,54.5,51.9,29.31,SE,142,16.1,16.1,91,0.11,RA,,0.22,0.0,WeatherDisplay:10.37,2013-01-31 02:31:00,
2013-01-30 21:36:00,54.2,51.6,29.31,ESE,104,19.0,19.0,91,0.10,OVC,,0.22,0.0,WeatherDisplay:10.37,2013-01-31 02:36:00,
2013-01-30 21:41:00,54.2,51.6,29.29,SE,130,18.4,18.4,91,0.10,RA,,0.23,0.0,WeatherDisplay:10.37,2013-01-31 02:41:00,
2013-01-30 21:46:00,54.4,51.5,29.29,SSE,156,19.0,19.0,90,0.08,RA,,0.23,0.0,WeatherDisplay:10.37,2013-01-31 02:46:00,
2013-01-30 21:51:00,54.5,51.6,29.29,SSE,159,20.0,20.0,90,0.07,OVC,,0.23,0.0,WeatherDisplay:10.37,2013-01-31 02:51:00,
2013-01-30 21:56:00,54.5,51.6,29.27,SE,145,21.0,21.0,90,0.06,OVC,,0.23,0.0,WeatherDisplay:10.37,2013-01-31 02:56:00,
2013-01-30 22:01:00,54.7,51.5,29.27,ESE,123,21.0,21.0,89,0.05,OVC,,0.23,0.0,WeatherDisplay:10.37,2013-01-31 03:01:00,
2013-01-30 22:06:00,54.7,51.5,29.27,SSE,152,18.4,18.4,89,0.04,OVC,,0.23,0.0,WeatherDisplay:10.37,2013-01-31 03:06:00,
2013-01-30 22:11:00,54.7,51.5,29.26,SSE,163,20.7,20.7,89,0.03,OVC,,0.23,0.0,WeatherDisplay:10.37,2013-01-31 03:11:00,
2013-01-30 22:16:00,54.8,51.6,29.26,SE,134,18.4,18.4,89,0.02,-RA,,0.23,0.0,WeatherDisplay:10.37,2013-01-31 03:16:00,
2013-01-30 22:21:00,55.0,51.5,29.26,SSE,150,20.0,20.0,88,0.03,-RA,,0.24,0.0,WeatherDisplay:10.37,2013-01-31 03:21:00,
2013-01-30 22:26:00,54.8,51.3,29.26,South,172,17.3,17.3,88,0.02,-RA,,0.24,0.0,WeatherDisplay:10.37,2013-01-31 03:26:00,
2013-01-30 22:31:00,55.0,51.5,29.26,South,171,19.0,19.0,88,0.02,-RA,,0.24,0.0,WeatherDisplay:10.37,2013-01-31 03:31:00,
2013-01-30 22:36:00,55.0,51.5,29.26,SE,146,15.0,15.0,88,0.02,-RA,,0.24,0.0,WeatherDisplay:10.37,2013-01-31 03:36:00,
2013-01-30 22:41:00,55.0,51.5,29.25,ESE,109,19.0,19.0,88,0.02,-RA,,0.25,0.0,WeatherDisplay:10.37,2013-01-31 03:41:00,
2013-01-30 22:46:00,55.0,51.2,29.25,SE,138,17.0,17.0,87,0.02,-RA,,0.25,0.0,WeatherDisplay:10.37,2013-01-31 03:46:00,
2013-01-30 22:51:00,55.0,51.5,29.25,SSE,163,26.5,26.5,88,0.02,-RA,,0.25,0.0,WeatherDisplay:10.37,2013-01-31 03:51:00,
2013-01-30 22:56:00,55.0,51.2,29.24,SE,133,21.0,21.0,87,0.02,-RA,,0.25,0.0,WeatherDisplay:10.37,2013-01-31 03:56:00,
2013-01-30 23:01:00,55.1,51.3,29.24,SE,129,20.7,20.7,87,0.02,-RA,,0.25,0.0,WeatherDisplay:10.37,2013-01-31 04:01:00,
2013-01-30 23:06:00,54.8,51.3,29.24,SE,129,16.1,16.1,88,0.02,-RA,,0.25,0.0,WeatherDisplay:10.37,2013-01-31 04:06:00,
2013-01-30 23:11:00,54.7,51.2,29.23,SE,146,10.4,10.4,88,0.03,-RA,,0.26,0.0,WeatherDisplay:10.37,2013-01-31 04:11:00,
2013-01-30 23:16:00,54.4,51.2,29.23,SSE,147,11.5,11.5,89,0.03,-RA,,0.26,0.0,WeatherDisplay:10.37,2013-01-31 04:16:00,
2013-01-30 23:21:00,54.4,51.5,29.23,SSE,163,15.0,15.0,90,0.02,-RA,,0.26,0.0,WeatherDisplay:10.37,2013-01-31 04:21:00,
2013-01-30 23:26:00,54.2,51.3,29.21,ESE,109,14.0,14.0,90,0.02,-RA,,0.26,0.0,WeatherDisplay:10.37,2013-01-31 04:26:00,
2013-01-30 23:31:00,54.2,51.3,29.21,ESE,123,10.0,10.0,90,0.02,-RA,,0.26,0.0,WeatherDisplay:10.37,2013-01-31 04:31:00,
2013-01-30 23:36:00,54.1,51.2,29.21,East,89,9.2,9.2,90,0.02,-RA,,0.26,0.0,WeatherDisplay:10.37,2013-01-31 04:36:00,
2013-01-30 23:42:00,54.1,51.2,29.19,ESE,105,10.4,10.4,90,0.01,-RA,,0.26,0.0,WeatherDisplay:10.37,2013-01-31 04:42:00,
2013-01-30 23:47:00,53.9,51.3,29.19,ESE,121,10.0,10.0,91,0.01,-RA,,0.26,0.0,WeatherDisplay:10.37,2013-01-31 04:47:00,
2013-01-30 23:52:00,53.9,51.3,29.19,ESE,112,10.0,10.0,91,0.01,-RA,,0.26,0.0,WeatherDisplay:10.37,2013-01-31 04:52:00,
2013-01-30 23:57:00,53.9,51.3,29.17,ESE,116,8.1,8.1,91,0.01,-RA,,0.26,0.0,WeatherDisplay:10.37,2013-01-31 04:57:00,